Lumberton, NC

1:24 PM EDT on May 25, 2017 (GMT -0400)
Lumberton Municipal

Weather History for KLBT - May, 2012

Change the Weather History Date:

Saturday, May 5, 2012

  Actual Average Record
Temperature  
Mean Temperature 78 °F 67 °F  
Max Temperature 91 °F 80 °F 91 °F (2012)
Min Temperature 65 °F 54 °F 45 °F (2011)
Degree Days  
Heating Degree Days 0 2  
Month to date heating degree days 0 12  
Since 1 July heating degree days 2136 2741  
Cooling Degree Days 13 4  
Month to date cooling degree days 56 17  
Year to date cooling degree days 198 85  
Growing Degree Days 28 (Base 50)    
Moisture  
Dew Point 65 °F    
Average Humidity 69    
Maximum Humidity 93    
Minimum Humidity 44    
Precipitation  
Precipitation 0.00 in 0.07 in 1.34 in (2017)
Month to date precipitation 0.00 0.33  
Year to date precipitation 11.45 12.35  
Sea Level Pressure  
Sea Level Pressure 29.86 in    
Wind  
Wind Speed 6 mph (WSW)    
Max Wind Speed 22 mph    
Max Gust Speed 29 mph    
Visibility 10 miles    
Events      
T = Trace of Precipitation, MM = Missing Value Source: NWS Daily Summary

Daily Weather History Graph

Daily Weather History Graph

Search for Another Location

Airport or City:

Trip Planner

Search our weather history database for the weather conditions in past years. The results will help you decide how hot, cold, wet, or windy it might be!

Date:

Astronomy

May. 05, 2012 Rise Set
Actual Time 6:21 AM EDT 8:04 PM EDT
Civil Twilight 5:54 AM EDT 8:31 PM EDT
Nautical Twilight 5:21 AM EDT 9:04 PM EDT
Astronomical Twilight 4:46 AM EDT 9:39 PM EDT
Moon 7:53 PM EDT (5/5) 5:42 AM EDT (5/5)
Length of Visible Light 14h 37m
Length of Day
13h 43m
Full, 100% of the Moon is Illuminated
May 5
Full
May 5
Full
May 12
Last Quarter
May 20
New
May 28
First Quarter

Hourly Weather History & Observations

Time (EDT) Temp. Heat Index Dew Point Humidity Pressure Visibility Wind Dir Wind Speed Gust Speed Precip Events Conditions
12:54 AM 69.1 °F - 64.9 °F 87% 29.93 in 10.0 mi SW 3.5 mph - N/A   Clear
1:54 AM 70.0 °F - 64.9 °F 84% 29.91 in 10.0 mi SW 3.5 mph - N/A   Clear
2:54 AM 68.0 °F - 64.9 °F 90% 29.90 in 9.0 mi WSW 5.8 mph - N/A   Clear
3:54 AM 69.1 °F - 64.0 °F 84% 29.90 in 10.0 mi SW 4.6 mph - N/A   Partly Cloudy
4:54 AM 66.9 °F - 64.0 °F 90% 29.89 in 10.0 mi WSW 3.5 mph - N/A   Clear
5:54 AM 66.0 °F - 63.0 °F 90% 29.89 in 9.0 mi Calm Calm - N/A   Clear
6:54 AM 66.0 °F - 64.0 °F 93% 29.90 in 6.0 mi Calm Calm - N/A   Clear
7:54 AM 71.1 °F - 66.0 °F 84% 29.91 in 9.0 mi WSW 5.8 mph - N/A   Clear
8:54 AM 75.9 °F - 66.9 °F 74% 29.92 in 10.0 mi West 10.4 mph - N/A   Clear
9:54 AM 80.1 °F 82.3 °F 66.9 °F 64% 29.92 in 10.0 mi West 6.9 mph - N/A   Clear
10:54 AM 82.9 °F 85.8 °F 68.0 °F 60% 29.91 in 10.0 mi NW 4.6 mph - N/A   Clear
11:54 AM 84.9 °F 88.2 °F 68.0 °F 57% 29.90 in 10.0 mi SSW 4.6 mph - N/A   Clear
12:54 PM 90.0 °F 92.4 °F 66.0 °F 45% 29.88 in 10.0 mi Variable 6.9 mph - N/A   Clear
1:54 PM 89.1 °F 90.3 °F 64.0 °F 43% 29.85 in 10.0 mi WSW 4.6 mph - N/A   Partly Cloudy
2:54 PM 90.0 °F 91.3 °F 64.0 °F 42% 29.82 in 10.0 mi SW 9.2 mph - N/A   Partly Cloudy
3:54 PM 88.0 °F 89.6 °F 64.9 °F 46% 29.80 in 10.0 mi SW 8.1 mph - N/A   Clear
4:54 PM 90.0 °F 91.3 °F 64.0 °F 42% 29.78 in 10.0 mi WSW 11.5 mph - N/A   Clear
5:54 PM 89.1 °F 91.0 °F 64.9 °F 45% 29.77 in 10.0 mi WSW 10.4 mph - N/A   Clear
6:54 PM 87.1 °F 88.3 °F 64.0 °F 46% 29.76 in 10.0 mi West 9.2 mph - N/A   Clear
7:54 PM 82.0 °F 83.8 °F 64.9 °F 56% 29.77 in 10.0 mi WNW 4.6 mph - N/A   Partly Cloudy
8:54 PM 75.0 °F - 64.9 °F 71% 29.83 in 10.0 mi SSW 4.6 mph - N/A   Mostly Cloudy
9:54 PM 73.0 °F - 66.0 °F 79% 29.82 in 10.0 mi North 6.9 mph - N/A   Clear
11:54 PM 70.0 °F - 66.9 °F 90% 29.86 in 10.0 mi NNW 4.6 mph - N/A   Partly Cloudy